Regional Weather Roundup
Issued by NWS Sioux Falls, SD

Home | Current Version | Previous Version | Text Only | Print | Product List | Glossary On
Versions: 1 2 3 4 5 6 7 8 9 10 11 12 13 14 15 16 17 18 19 20 21 22 23 24 25 26 27 28 29 30 31 32 33 34 35 36 37 38 39 40 41 42 43 44 45 46 47 48 49 50
000
ASUS43 KFSD 260110
RWRFSD

WEATHER ROUNDUP FOR SE SOUTH DAKOTA/SW MINNESOTA/NW IOWA
NATIONAL WEATHER SERVICE SIOUX FALLS SD
800 PM CDT SAT MAR 25 2017

NOTE: "FAIR" INDICATES FEW OR NO CLOUDS BELOW 12,000 FEET WITH NO
SIGNIFICANT WEATHER AND OR OBSTRUCTIONS TO VISIBILITY.


SDZ038>040-050-052>070-260200-
SOUTHEAST SOUTH DAKOTA

CITY           SKY/WX    TMP DP  RH WIND       PRES   REMARKS
BROOKINGS      CLOUDY    38  36  92 E9        29.99S FOG
CHAMBERLAIN    CLOUDY    44  37  77 E6        29.95R
HURON          CLOUDY    42  37  82 E10       29.98S
MADISON        CLOUDY    37  37 100 MISG      29.99R
MITCHELL       CLOUDY    43  38  82 E10       29.98S
SIOUX FALLS    CLOUDY    41  38  89 E13       29.99S
WINNER         FAIR      46  35  65 SE14      29.91R
YANKTON        CLOUDY    39  37  93 E10       29.98S
$$

MNZ071-072-080-081-089-090-097-098-260200-
SOUTHWEST MINNESOTA

CITY           SKY/WX    TMP DP  RH WIND       PRES   REMARKS
FAIRMONT       MIX PCPN  37  36  96 NE13      30.01S FOG
JACKSON        CLOUDY    36  36 100 E14       30.00S FOG
LUVERNE        CLOUDY    37  34  87 E10       30.00S FOG
MARSHALL       CLOUDY    39  37  92 E10       30.03S
MONTEVIDEO     CLOUDY    39  36  87 SE8       30.06F
PIPESTONE      CLOUDY    37  34  87 E13       29.99S FOG
REDWOOD FALLS  CLOUDY    41  34  76 E8        30.04R
TRACY          CLOUDY    40  37  91 E8        30.02S
WINDOM         CLOUDY    37  37 100 NE13      30.00S FOG
WORTHINGTON    CLOUDY    36  36 100 NE10      30.00S FOG
$$

IAZ001>003-012>014-020>022-031-032-NEZ013-014-SDZ071-260200-
NORTHWEST IOWA

CITY           SKY/WX    TMP DP  RH WIND       PRES   REMARKS
CHEROKEE       CLOUDY    38  38  98 NE8       29.97S FOG
ESTHERVILLE    CLOUDY    36  36 100 NE13      29.98S FOG
LE MARS        CLOUDY    39  37  93 NE8       29.99S
ORANGE CITY    CLOUDY    37  37 100 E7        29.98S FOG
SHELDON        CLOUDY    37  37 100 E10       29.97R FOG
SIOUX CITY     CLOUDY    40  39  97 NE9       29.98R
SPENCER        CLOUDY    38  37  97 NE14      29.98S
STORM LAKE     FOG       37  37 100 NE16      29.95S VSB 1
$$

ABBREVIATIONS USED IN REMARKS
   TC - TEMPERATURE IN CELSIUS
  WCI - WIND CHILL INDEX
   HX - HEAT INDEX
  VSB - VISIBILITY





USA.gov is the U.S. government's official web portal to all federal, state and local government web resources and services.